When you browse on this site, cookies collect data to enhance your experience and personalize the content and advertising you see.
Visit our Privacy Policy to learn more. By continuing to use the site, you agree to this use of cookies and data.
  • In Denmark
  • List of Countries
  • For 7 days
  • Water Temperature
  • Satellite Maps
  • Weather Map
  • Weather Widgets
  • user-avatar
    Login

    Hourly Weather Spasskie Vyselki

    Today, 20 May, Monday

    Time Temperature Precipitation Wind Pressure Humidity
    00:00 +13°C° 0 mm 2 mps 747 mmHg 81%
    01:00 +12°C° 0 mm 2 mps 747 mmHg 82%
    02:00 +11°C° 0 mm 1 mps 747 mmHg 82%
    03:00 +12°C° 0 mm 1 mps 747 mmHg 82%
    04:00 +12°C° 0 mm 1 mps 748 mmHg 81%
    05:00 +12°C° 0 mm 1 mps 748 mmHg 81%
    06:00 +14°C° 0 mm 1 mps 748 mmHg 75%
    07:00 +16°C° 0 mm 1 mps 748 mmHg 70%
    08:00 +19°C° 0 mm 1 mps 748 mmHg 66%
    09:00 +19°C° 0.2 mm 2 mps 748 mmHg 64%
    10:00 +20°C° 0.2 mm 2 mps 748 mmHg 62%
    11:00 +21°C° 0.2 mm 2 mps 748 mmHg 59%
    12:00 +23°C° 0.1 mm 2 mps 748 mmHg 57%
    13:00 +23°C° 0.1 mm 2 mps 748 mmHg 55%
    14:00 +24°C° 0.1 mm 2 mps 748 mmHg 52%
    15:00 +23°C° 0.1 mm 2 mps 748 mmHg 57%
    16:00 +23°C° 0.1 mm 2 mps 748 mmHg 61%
    17:00 +23°C° 0.1 mm 2 mps 747 mmHg 65%
    18:00 +20°C° 0.1 mm 2 mps 747 mmHg 70%
    19:00 +18°C° 0.1 mm 2 mps 747 mmHg 76%
    20:00 +16°C° 0.1 mm 1 mps 748 mmHg 81%
    21:00 +15°C° 0 mm 2 mps 748 mmHg 83%
    22:00 +15°C° 0 mm 2 mps 748 mmHg 85%
    23:00 +14°C° 0 mm 2 mps 748 mmHg 87%

    Tomorrow, 21 May, Tuesday

    Time Temperature Precipitation Wind Pressure Humidity
    00:00 +14°C° 0 mm 2 mps 748 mmHg 89%
    01:00 +13°C° 0 mm 2 mps 748 mmHg 90%
    02:00 +13°C° 0 mm 2 mps 749 mmHg 91%
    03:00 +13°C° 0 mm 2 mps 749 mmHg 91%
    04:00 +13°C° 0 mm 2 mps 748 mmHg 91%
    05:00 +13°C° 0 mm 2 mps 748 mmHg 90%
    06:00 +15°C° 0 mm 2 mps 748 mmHg 85%
    07:00 +17°C° 0 mm 2 mps 748 mmHg 80%
    08:00 +19°C° 0 mm 2 mps 749 mmHg 75%
    09:00 +20°C° 0.1 mm 3 mps 748 mmHg 71%
    10:00 +21°C° 0.1 mm 3 mps 748 mmHg 67%
    11:00 +22°C° 0.1 mm 3 mps 748 mmHg 63%
    12:00 +22°C° 0.5 mm 4 mps 748 mmHg 64%
    13:00 +22°C° 0.5 mm 4 mps 747 mmHg 64%
    14:00 +22°C° 0.5 mm 4 mps 747 mmHg 64%
    15:00 +22°C° 0.1 mm 4 mps 747 mmHg 66%
    16:00 +21°C° 0.1 mm 3 mps 746 mmHg 68%
    17:00 +21°C° 0.1 mm 3 mps 746 mmHg 71%
    18:00 +19°C° 0 mm 3 mps 746 mmHg 75%
    19:00 +18°C° 0 mm 3 mps 746 mmHg 80%
    20:00 +16°C° 0 mm 3 mps 746 mmHg 84%
    21:00 +14°C° 0 mm 3 mps 746 mmHg 86%
    22:00 +13°C° 0 mm 3 mps 746 mmHg 87%
    23:00 +13°C° 0 mm 3 mps 746 mmHg 88%

    Day after tomorrow, 22 May, Wednesday

    Time Temperature Precipitation Wind Pressure Humidity
    00:00 +12°C° 0 mm 3 mps 745 mmHg 88%
    01:00 +12°C° 0 mm 3 mps 745 mmHg 88%
    02:00 +11°C° 0 mm 3 mps 745 mmHg 88%
    03:00 +12°C° 0 mm 2 mps 745 mmHg 87%
    04:00 +13°C° 0 mm 2 mps 744 mmHg 87%
    05:00 +13°C° 0 mm 2 mps 744 mmHg 87%
    06:00 +15°C° 0 mm 2 mps 744 mmHg 82%
    07:00 +17°C° 0 mm 2 mps 744 mmHg 78%
    08:00 +19°C° 0 mm 2 mps 744 mmHg 73%
    09:00 +20°C° 0 mm 3 mps 744 mmHg 70%
    10:00 +21°C° 0 mm 3 mps 743 mmHg 67%
    11:00 +22°C° 0 mm 4 mps 743 mmHg 63%
    12:00 +22°C° 0.1 mm 4 mps 743 mmHg 63%
    13:00 +22°C° 0.1 mm 4 mps 742 mmHg 63%
    14:00 +23°C° 0.1 mm 4 mps 742 mmHg 62%
    15:00 +22°C° 0.1 mm 4 mps 742 mmHg 66%
    16:00 +22°C° 0.1 mm 4 mps 741 mmHg 69%
    17:00 +22°C° 0.1 mm 4 mps 741 mmHg 72%
    18:00 +20°C° 0 mm 3 mps 741 mmHg 77%
    19:00 +19°C° 0 mm 3 mps 741 mmHg 83%
    20:00 +17°C° 0 mm 3 mps 741 mmHg 88%
    21:00 +16°C° 0 mm 3 mps 741 mmHg 89%
    22:00 +16°C° 0 mm 3 mps 740 mmHg 90%
    23:00 +14°C° 0 mm 3 mps 740 mmHg 91%

    23 May, Thursday

    Time Temperature Precipitation Wind Pressure Humidity
    00:00 +14°C° 0.1 mm 3 mps 740 mmHg 91%
    01:00 +13°C° 0.1 mm 3 mps 740 mmHg 92%
    02:00 +13°C° 0.1 mm 3 mps 740 mmHg 92%
    03:00 +13°C° 0.2 mm 3 mps 740 mmHg 92%
    04:00 +13°C° 0.2 mm 3 mps 740 mmHg 92%
    05:00 +13°C° 0.2 mm 3 mps 740 mmHg 92%
    06:00 +16°C° 0 mm 3 mps 740 mmHg 89%
    07:00 +18°C° 0 mm 3 mps 740 mmHg 85%
    08:00 +20°C° 0 mm 3 mps 740 mmHg 82%
    09:00 +21°C° 0.2 mm 3 mps 739 mmHg 77%
    10:00 +22°C° 0.2 mm 4 mps 739 mmHg 72%
    11:00 +23°C° 0.2 mm 4 mps 739 mmHg 67%
    12:00 +25°C° 0.6 mm 4 mps 739 mmHg 67%
    13:00 +25°C° 0.6 mm 4 mps 739 mmHg 66%
    14:00 +25°C° 0.6 mm 4 mps 739 mmHg 65%
    15:00 +25°C° 0.5 mm 4 mps 739 mmHg 69%
    16:00 +24°C° 0.5 mm 3 mps 738 mmHg 72%
    17:00 +24°C° 0.5 mm 2 mps 738 mmHg 76%
    18:00 +21°C° 0.5 mm 2 mps 738 mmHg 79%
    19:00 +20°C° 0.5 mm 2 mps 738 mmHg 82%
    20:00 +18°C° 0.5 mm 2 mps 738 mmHg 86%
    21:00 +18°C° 0.2 mm 2 mps 739 mmHg 87%
    22:00 +18°C° 0.2 mm 1 mps 739 mmHg 89%
    23:00 +16°C° 0.2 mm 1 mps 739 mmHg 90%

    24 May, Friday

    Time Temperature Precipitation Wind Pressure Humidity
    00:00 +16°C° 0.1 mm 1 mps 739 mmHg 91%
    01:00 +16°C° 0.1 mm 1 mps 739 mmHg 91%
    02:00 +16°C° 0.1 mm 1 mps 739 mmHg 91%
    03:00 +16°C° 0 mm 1 mps 739 mmHg 91%
    04:00 +16°C° 0 mm 1 mps 739 mmHg 91%
    05:00 +16°C° 0 mm 1 mps 739 mmHg 91%
    06:00 +19°C° 0.1 mm 1 mps 739 mmHg 86%
    07:00 +21°C° 0.1 mm 1 mps 739 mmHg 81%
    08:00 +22°C° 0.1 mm 1 mps 739 mmHg 76%
    09:00 +23°C° 2 mm 1 mps 739 mmHg 73%
    10:00 +23°C° 2 mm 2 mps 739 mmHg 70%
    11:00 +24°C° 2 mm 2 mps 739 mmHg 67%
    12:00 +24°C° 0.2 mm 2 mps 739 mmHg 66%
    13:00 +24°C° 0.2 mm 2 mps 738 mmHg 64%
    14:00 +24°C° 0.2 mm 2 mps 738 mmHg 62%
    15:00 +24°C° 0 mm 2 mps 738 mmHg 66%
    16:00 +23°C° 0 mm 2 mps 738 mmHg 69%
    17:00 +23°C° 0 mm 2 mps 738 mmHg 73%
    18:00 +20°C° 0 mm 2 mps 738 mmHg 77%
    19:00 +19°C° 0 mm 2 mps 738 mmHg 82%
    20:00 +18°C° 0 mm 2 mps 737 mmHg 86%
    21:00 +17°C° 1.1 mm 2 mps 737 mmHg 88%
    22:00 +16°C° 1.1 mm 2 mps 737 mmHg 91%
    23:00 +16°C° 1.1 mm 2 mps 737 mmHg 93%

    25 May, Saturday

    Time Temperature Precipitation Wind Pressure Humidity
    00:00 +16°C° 0 mm 2 mps 737 mmHg 93%
    01:00 +15°C° 0 mm 2 mps 737 mmHg 93%
    02:00 +15°C° 0 mm 2 mps 737 mmHg 93%
    03:00 +15°C° 0 mm 2 mps 737 mmHg 93%
    04:00 +15°C° 0 mm 2 mps 737 mmHg 92%
    05:00 +16°C° 0 mm 2 mps 737 mmHg 92%
    06:00 +17°C° 0 mm 2 mps 737 mmHg 87%
    07:00 +19°C° 0 mm 2 mps 737 mmHg 81%
    08:00 +21°C° 0 mm 2 mps 737 mmHg 76%
    09:00 +22°C° 0.1 mm 3 mps 737 mmHg 71%
    10:00 +24°C° 0.1 mm 3 mps 737 mmHg 66%
    11:00 +25°C° 0.1 mm 3 mps 736 mmHg 61%
    12:00 +25°C° 0.1 mm 3 mps 736 mmHg 60%
    13:00 +25°C° 0.1 mm 3 mps 736 mmHg 58%
    14:00 +26°C° 0.1 mm 3 mps 736 mmHg 57%
    15:00 +25°C° 0.5 mm 2 mps 736 mmHg 61%
    16:00 +25°C° 0.5 mm 2 mps 735 mmHg 66%
    17:00 +25°C° 0.5 mm 2 mps 735 mmHg 70%
    18:00 +23°C° 0.1 mm 2 mps 735 mmHg 74%
    19:00 +21°C° 0.1 mm 1 mps 735 mmHg 77%
    20:00 +19°C° 0.1 mm 1 mps 735 mmHg 80%
    21:00 +18°C° 0.1 mm 1 mps 735 mmHg 82%
    22:00 +18°C° 0.1 mm 1 mps 735 mmHg 83%
    23:00 +15°C° 0.1 mm 0 mps 734 mmHg 85%
    Show more